| time (UTC) | temp C | wind direction | speed KPH | gust KPH | rain 1hr cm | rain 24hr cm | rain mn cm | humidity % | barometer mb |
| 20260506204726 | 27 | 185 | 8.0 | 17.7 | 0.00 | 0.00 | 0.00 | 84 | 1008.2 |
| 20260506204227 | 27 | 136 | 8.0 | 17.7 | 0.00 | 0.00 | 0.00 | 84 | 1008.3 |
| 20260506203706 | 27 | 128 | 9.7 | 17.7 | 0.00 | 0.00 | 0.00 | 84 | 1008.3 |
| 20260506202532 | 27 | 143 | 9.7 | 16.1 | 0.00 | 0.00 | 0.00 | 83 | 1008.3 |
| 20260506202025 | 27 | 150 | 9.7 | 16.1 | 0.00 | 0.00 | 0.00 | 83 | 1008.3 |
| 20260506201510 | 27 | 150 | 9.7 | 16.1 | 0.00 | 0.00 | 0.00 | 83 | 1008.5 |
| 20260506201001 | 27 | 169 | 8.0 | 14.5 | 0.00 | 0.00 | 0.00 | 84 | 1008.6 |
| 20260506200446 | 27 | 104 | 8.0 | 17.7 | 0.00 | 0.00 | 0.00 | 84 | 1008.6 |
| 20260506195946 | 27 | 157 | 8.0 | 17.7 | 0.00 | 0.00 | 0.00 | 84 | 1008.8 |
| 20260506195425 | 27 | 112 | 8.0 | 17.7 | 0.00 | 0.00 | 0.00 | 84 | 1008.8 |
| 20260506194917 | 27 | 92 | 8.0 | 17.7 | 0.00 | 0.00 | 0.00 | 84 | 1008.9 |
| 20260506194357 | 27 | 125 | 8.0 | 14.5 | 0.00 | 0.00 | 0.00 | 84 | 1009.0 |
| 20260506193848 | 27 | 111 | 8.0 | 14.5 | 0.00 | 0.00 | 0.00 | 84 | 1009.0 |
| 20260506193331 | 27 | 167 | 8.0 | 14.5 | 0.00 | 0.00 | 0.00 | 84 | 1009.1 |
| 20260506192813 | 27 | 2 | 8.0 | 14.5 | 0.00 | 0.00 | 0.00 | 84 | 1009.1 |
| 20260506192300 | 27 | 143 | 8.0 | 16.1 | 0.00 | 0.00 | 0.00 | 84 | 1009.2 |
| 20260506191803 | 27 | 165 | 8.0 | 16.1 | 0.00 | 0.00 | 0.00 | 84 | 1009.2 |
| 20260506191241 | 27 | 206 | 8.0 | 16.1 | 0.00 | 0.00 | 0.00 | 84 | 1009.4 |
| 20260506190725 | 27 | 194 | 8.0 | 16.1 | 0.00 | 0.00 | 0.00 | 84 | 1009.4 |
| 20260506185549 | 27 | 136 | 8.0 | 14.5 | 0.00 | 0.00 | 0.00 | 84 | 1009.4 |
| 20260506185050 | 27 | 174 | 8.0 | 14.5 | 0.00 | 0.00 | 0.00 | 84 | 1009.5 |
| 20260506184535 | 27 | 144 | 8.0 | 14.5 | 0.00 | 0.00 | 0.00 | 85 | 1009.6 |
| 20260506184015 | 27 | 152 | 6.4 | 14.5 | 0.00 | 0.00 | 0.00 | 85 | 1009.6 |
| 20260506183500 | 27 | 157 | 4.8 | 9.7 | 0.00 | 0.00 | 0.00 | 85 | 1009.6 |
| 20260506182333 | 27 | 179 | 1.6 | 8.0 | 0.00 | 0.00 | 0.00 | 85 | 1009.8 |
| 20260506181830 | 27 | 173 | 0.0 | 6.4 | 0.00 | 0.00 | 0.00 | 85 | 1009.8 |
| 20260506181322 | 27 | 130 | 0.0 | 4.8 | 0.00 | 0.00 | 0.00 | 85 | 1009.9 |
| 20260506180138 | 27 | 66 | 1.6 | 4.8 | 0.00 | 0.00 | 0.00 | 85 | 1009.9 |
| 20260506175619 | 27 | 87 | 1.6 | 4.8 | 0.00 | 0.00 | 0.00 | 85 | 1010.0 |
| 20260506175111 | 27 | 219 | 0.0 | 3.2 | 0.00 | 0.00 | 0.00 | 85 | 1009.9 |
| 20260506174604 | 27 | 116 | 0.0 | 3.2 | 0.00 | 0.00 | 0.00 | 85 | 1009.9 |
| 20260506173417 | 27 | 103 | 0.0 | 4.8 | 0.00 | 0.00 | 0.00 | 85 | 1010.2 |
| 20260506172920 | 27 | 80 | 0.0 | 6.4 | 0.00 | 0.00 | 0.00 | 85 | 1010.2 |
| 20260506172418 | 27 | 163 | 0.0 | 6.4 | 0.00 | 0.00 | 0.00 | 86 | 1010.3 |
| 20260506171915 | 27 | 55 | 1.6 | 6.4 | 0.00 | 0.00 | 0.00 | 86 | 1010.1 |
| 20260506171418 | 27 | 133 | 0.0 | 6.4 | 0.00 | 0.00 | 0.00 | 86 | 1010.1 |
| 20260506170924 | 27 | 179 | 0.0 | 6.4 | 0.00 | 0.00 | 0.00 | 86 | 1010.1 |
| 20260506170428 | 27 | 155 | 0.0 | 6.4 | 0.00 | 0.00 | 0.00 | 86 | 1010.2 |
| 20260506165930 | 27 | 210 | 0.0 | 9.7 | 0.00 | 0.00 | 0.00 | 86 | 1010.1 |
| 20260506164751 | 27 | 117 | 3.2 | 9.7 | 0.00 | 0.00 | 0.00 | 87 | 1010.1 |
| 20260506164229 | 27 | 101 | 3.2 | 9.7 | 0.00 | 0.00 | 0.00 | 87 | 1010.0 |
| 20260506163709 | 27 | 140 | 4.8 | 8.0 | 0.00 | 0.00 | 0.00 | 87 | 1010.2 |
| 20260506163212 | 27 | 151 | 4.8 | 8.0 | 0.00 | 0.00 | 0.00 | 87 | 1010.2 |
| 20260506162706 | 26 | 2 | 4.8 | 11.3 | 0.00 | 0.00 | 0.00 | 87 | 1010.2 |
| 20260506162213 | 26 | 150 | 4.8 | 11.3 | 0.00 | 0.00 | 0.00 | 87 | 1010.1 |
| 20260506161717 | 26 | 161 | 4.8 | 11.3 | 0.00 | 0.00 | 0.00 | 87 | 1010.1 |
| 20260506161222 | 26 | 161 | 6.4 | 11.3 | 0.00 | 0.00 | 0.00 | 87 | 1010.0 |
| 20260506160042 | 26 | 145 | 3.2 | 9.7 | 0.00 | 0.00 | 0.00 | 87 | 1009.9 |
| 20260506154937 | 26 | 144 | 4.8 | 9.7 | 0.00 | 0.00 | 0.00 | 87 | 1009.8 |
| 20260506154439 | 26 | 167 | 4.8 | 12.9 | 0.00 | 0.00 | 0.00 | 87 | 1009.7 |
| 20260506153928 | 26 | 2 | 6.4 | 12.9 | 0.00 | 0.00 | 0.00 | 88 | 1009.8 |
| 20260506153412 | 26 | 146 | 6.4 | 14.5 | 0.00 | 0.00 | 0.00 | 88 | 1009.6 |
| 20260506152914 | 26 | 162 | 6.4 | 14.5 | 0.00 | 0.00 | 0.00 | 88 | 1009.5 |
| 20260506152413 | 26 | 177 | 8.0 | 14.5 | 0.00 | 0.00 | 0.00 | 88 | 1009.5 |
| 20260506151916 | 26 | 195 | 8.0 | 14.5 | 0.00 | 0.00 | 0.00 | 88 | 1009.4 |
| 20260506151417 | 26 | 205 | 8.0 | 14.5 | 0.00 | 0.00 | 0.00 | 88 | 1009.3 |
| 20260506150905 | 26 | 140 | 8.0 | 14.5 | 0.00 | 0.00 | 0.00 | 88 | 1009.1 |
| 20260506150349 | 26 | 144 | 8.0 | 14.5 | 0.00 | 0.00 | 0.00 | 88 | 1009.2 |
| 20260506145850 | 26 | 157 | 8.0 | 14.5 | 0.00 | 0.00 | 0.00 | 88 | 1009.3 |
| 20260506145336 | 26 | 132 | 6.4 | 14.5 | 0.00 | 0.00 | 0.00 | 88 | 1009.3 |
| 20260506144834 | 26 | 151 | 8.0 | 14.5 | 0.00 | 0.00 | 0.00 | 88 | 1009.3 |
| 20260506144323 | 26 | 156 | 8.0 | 14.5 | 0.00 | 0.00 | 0.00 | 88 | 1009.3 |
| 20260506143808 | 26 | 124 | 8.0 | 14.5 | 0.00 | 0.00 | 0.00 | 88 | 1009.3 |
| 20260506142635 | 26 | 2 | 8.0 | 14.5 | 0.00 | 0.00 | 0.00 | 88 | 1009.3 |
| 20260506141456 | 26 | 187 | 6.4 | 14.5 | 0.00 | 0.00 | 0.00 | 88 | 1009.2 |
| 20260506140953 | 26 | 157 | 8.0 | 14.5 | 0.00 | 0.00 | 0.00 | 88 | 1009.3 |
| 20260506140434 | 26 | 2 | 8.0 | 14.5 | 0.00 | 0.00 | 0.00 | 88 | 1009.2 |
| 20260506135923 | 26 | 149 | 6.4 | 14.5 | 0.00 | 0.00 | 0.00 | 88 | 1009.2 |
| 20260506135416 | 26 | 148 | 6.4 | 9.7 | 0.00 | 0.00 | 0.00 | 88 | 1009.3 |
| 20260506134904 | 26 | 97 | 4.8 | 9.7 | 0.00 | 0.00 | 0.00 | 88 | 1009.2 |
| 20260506134408 | 26 | 153 | 3.2 | 8.0 | 0.00 | 0.00 | 0.00 | 88 | 1009.2 |
| 20260506133846 | 26 | 143 | 1.6 | 8.0 | 0.00 | 0.00 | 0.00 | 88 | 1009.3 |
| 20260506133338 | 26 | 186 | 0.0 | 4.8 | 0.00 | 0.00 | 0.00 | 88 | 1009.3 |
| 20260506132842 | 26 | 121 | 1.6 | 9.7 | 0.00 | 0.00 | 0.00 | 88 | 1009.3 |
| 20260506132324 | 26 | 171 | 4.8 | 9.7 | 0.00 | 0.00 | 0.00 | 88 | 1009.3 |
| 20260506131828 | 26 | 184 | 4.8 | 9.7 | 0.00 | 0.00 | 0.00 | 88 | 1009.3 |
| 20260506131323 | 26 | 165 | 4.8 | 9.7 | 0.00 | 0.00 | 0.00 | 88 | 1009.3 |
| 20260506130819 | 26 | 170 | 4.8 | 8.0 | 0.00 | 0.00 | 0.00 | 88 | 1009.3 |
| 20260506130314 | 26 | 180 | 4.8 | 8.0 | 0.00 | 0.00 | 0.00 | 88 | 1009.3 |
| 20260506125753 | 26 | 191 | 4.8 | 8.0 | 0.00 | 0.00 | 0.00 | 88 | 1009.4 |
| 20260506124523 | 26 | 162 | 4.8 | 11.3 | 0.00 | 0.00 | 0.00 | 88 | 1009.3 |
| 20260506124003 | 26 | 156 | 4.8 | 9.7 | 0.00 | 0.00 | 0.00 | 88 | 1009.2 |
| 20260506123447 | 26 | 130 | 4.8 | 9.7 | 0.00 | 0.00 | 0.00 | 88 | 1009.2 |
| 20260506122928 | 26 | 179 | 4.8 | 9.7 | 0.00 | 0.00 | 0.00 | 88 | 1009.1 |
| 20260506122407 | 26 | 2 | 6.4 | 12.9 | 0.00 | 0.00 | 0.00 | 88 | 1008.9 |
| 20260506121910 | 26 | 190 | 6.4 | 12.9 | 0.00 | 0.00 | 0.00 | 88 | 1008.9 |
| 20260506121400 | 26 | 197 | 6.4 | 12.9 | 0.00 | 0.00 | 0.00 | 88 | 1008.8 |
| 20260506120855 | 26 | 188 | 6.4 | 9.7 | 0.00 | 0.00 | 0.00 | 88 | 1008.7 |
| 20260506120342 | 26 | 141 | 6.4 | 9.7 | 0.00 | 0.00 | 0.00 | 88 | 1008.6 |
| 20260506115230 | 26 | 138 | 6.4 | 9.7 | 0.00 | 0.00 | 0.00 | 88 | 1008.4 |
| 20260506114717 | 26 | 165 | 6.4 | 9.7 | 0.00 | 0.00 | 0.00 | 87 | 1008.3 |
| 20260506113601 | 26 | 169 | 3.2 | 8.0 | 0.00 | 0.00 | 0.00 | 88 | 1008.2 |
| 20260506113100 | 26 | 145 | 4.8 | 8.0 | 0.00 | 0.00 | 0.00 | 88 | 1008.2 |
| 20260506112556 | 26 | 151 | 4.8 | 8.0 | 0.00 | 0.00 | 0.00 | 88 | 1008.2 |
| 20260506112052 | 26 | 150 | 4.8 | 14.5 | 0.00 | 0.00 | 0.00 | 87 | 1008.3 |
| 20260506110930 | 26 | 181 | 8.0 | 14.5 | 0.00 | 0.00 | 0.00 | 87 | 1008.2 |
| 20260506110415 | 26 | 164 | 8.0 | 14.5 | 0.00 | 0.00 | 0.00 | 87 | 1008.1 |
| 20260506105907 | 26 | 209 | 6.4 | 12.9 | 0.00 | 0.00 | 0.00 | 87 | 1008.1 |
| 20260506105407 | 26 | 2 | 6.4 | 12.9 | 0.00 | 0.00 | 0.00 | 87 | 1008.1 |
| 20260506104851 | 26 | 150 | 6.4 | 12.9 | 0.00 | 0.00 | 0.00 | 87 | 1008.0 |
| 20260506104333 | 26 | 169 | 6.4 | 12.9 | 0.00 | 0.00 | 0.00 | 87 | 1008.0 |
| 20260506103833 | 26 | 159 | 6.4 | 12.9 | 0.00 | 0.00 | 0.00 | 87 | 1008.0 |
| 20260506103322 | 26 | 171 | 6.4 | 9.7 | 0.00 | 0.00 | 0.00 | 87 | 1008.0 |
| 20260506102822 | 26 | 150 | 6.4 | 9.7 | 0.00 | 0.00 | 0.00 | 87 | 1008.0 |
| 20260506102324 | 26 | 166 | 6.4 | 12.9 | 0.00 | 0.00 | 0.00 | 87 | 1007.9 |
| 20260506101828 | 26 | 173 | 6.4 | 12.9 | 0.00 | 0.00 | 0.00 | 87 | 1007.9 |
| 20260506101316 | 26 | 174 | 6.4 | 12.9 | 0.00 | 0.00 | 0.00 | 87 | 1007.8 |
| 20260506100804 | 26 | 132 | 6.4 | 12.9 | 0.00 | 0.00 | 0.00 | 87 | 1007.8 |
| 20260506100249 | 26 | 128 | 6.4 | 14.5 | 0.00 | 0.00 | 0.00 | 87 | 1007.9 |
| 20260506093804 | 26 | 144 | 8.0 | 14.5 | 0.00 | 0.00 | 0.00 | 87 | 1007.7 |
| 20260506092643 | 26 | 165 | 6.4 | 9.7 | 0.00 | 0.00 | 0.00 | 87 | 1007.7 |
| 20260506092124 | 26 | 205 | 4.8 | 9.7 | 0.00 | 0.00 | 0.00 | 87 | 1007.8 |
| 20260506091005 | 26 | 167 | 4.8 | 9.7 | 0.00 | 0.00 | 0.00 | 87 | 1007.9 |
| 20260506090506 | 26 | 113 | 4.8 | 9.7 | 0.00 | 0.00 | 0.00 | 87 | 1008.0 |
| 20260506090010 | 26 | 182 | 4.8 | 14.5 | 0.00 | 0.00 | 0.00 | 87 | 1008.0 |
| 20260506085452 | 26 | 121 | 6.4 | 14.5 | 0.00 | 0.00 | 0.00 | 87 | 1008.1 |
| 20260506084957 | 26 | 171 | 8.0 | 14.5 | 0.00 | 0.00 | 0.00 | 87 | 1008.2 |
| 20260506084456 | 26 | 188 | 8.0 | 14.5 | 0.00 | 0.00 | 0.00 | 87 | 1008.3 |
| 20260506082710 | 26 | 2 | 8.0 | 12.9 | 0.00 | 0.00 | 0.00 | 87 | 1008.4 |
| 20260506082202 | 26 | 174 | 6.4 | 11.3 | 0.00 | 0.00 | 0.00 | 87 | 1008.3 |
| 20260506081658 | 26 | 193 | 4.8 | 11.3 | 0.00 | 0.00 | 0.00 | 87 | 1008.3 |
| 20260506081200 | 26 | 179 | 4.8 | 11.3 | 0.00 | 0.00 | 0.00 | 87 | 1008.4 |
| 20260506080705 | 26 | 182 | 6.4 | 14.5 | 0.00 | 0.00 | 0.00 | 87 | 1008.5 |
| 20260506080209 | 26 | 173 | 6.4 | 14.5 | 0.00 | 0.00 | 0.00 | 87 | 1008.5 |
| 20260506072444 | 26 | 187 | 8.0 | 14.5 | 0.00 | 0.00 | 0.00 | 87 | 1008.7 |
| 20260506071925 | 26 | 193 | 9.7 | 14.5 | 0.00 | 0.00 | 0.00 | 87 | 1008.8 |
| 20260506071412 | 26 | 2 | 9.7 | 17.7 | 0.00 | 0.00 | 0.00 | 87 | 1008.7 |
| 20260506070906 | 26 | 182 | 11.3 | 17.7 | 0.00 | 0.00 | 0.00 | 87 | 1008.7 |
| 20260506070357 | 26 | 172 | 11.3 | 17.7 | 0.00 | 0.00 | 0.00 | 87 | 1008.7 |
| 20260506062423 | 26 | 2 | 12.9 | 22.5 | 0.00 | 0.00 | 0.00 | 86 | 1008.8 |
| 20260506061901 | 26 | 183 | 12.9 | 22.5 | 0.00 | 0.00 | 0.00 | 86 | 1008.9 |
| 20260506061352 | 26 | 200 | 14.5 | 22.5 | 0.00 | 0.00 | 0.00 | 86 | 1008.7 |
| 20260506060831 | 26 | 182 | 14.5 | 22.5 | 0.00 | 0.00 | 0.00 | 87 | 1008.6 |
| 20260506050532 | 26 | 185 | 19.3 | 29.0 | 0.00 | 0.00 | 0.00 | 86 | 1008.6 |
| 20260506043600 | 26 | 170 | 24.1 | 32.2 | 0.00 | 0.00 | 0.00 | 86 | 1008.6 |
| 20260506043043 | 26 | 2 | 22.5 | 30.6 | 0.00 | 0.00 | 0.00 | 86 | 1008.6 |
| 20260506042550 | 26 | 165 | 20.9 | 27.4 | 0.00 | 0.00 | 0.00 | 86 | 1008.6 |
| 20260506042041 | 26 | 157 | 20.9 | 27.4 | 0.00 | 0.00 | 0.00 | 86 | 1008.6 |
| 20260506041533 | 26 | 172 | 22.5 | 32.2 | 0.00 | 0.00 | 0.00 | 86 | 1008.6 |
| 20260506040346 | 26 | 175 | 22.5 | 32.2 | 0.00 | 0.00 | 0.00 | 86 | 1008.8 |
| 20260506035829 | 26 | 190 | 22.5 | 29.0 | 0.00 | 0.00 | 0.00 | 86 | 1008.7 |
| 20260506035330 | 26 | 173 | 20.9 | 29.0 | 0.00 | 0.00 | 0.00 | 86 | 1008.7 |
| 20260506034832 | 26 | 165 | 19.3 | 29.0 | 0.00 | 0.00 | 0.00 | 86 | 1008.7 |
| 20260506034333 | 26 | 2 | 20.9 | 29.0 | 0.00 | 0.00 | 0.00 | 86 | 1008.8 |
| 20260506033815 | 26 | 2 | 19.3 | 27.4 | 0.00 | 0.00 | 0.00 | 86 | 1008.7 |
| 20260506033322 | 26 | 194 | 20.9 | 29.0 | 0.00 | 0.00 | 0.00 | 86 | 1008.7 |
| 20260506032816 | 26 | 2 | 20.9 | 29.0 | 0.00 | 0.00 | 0.00 | 86 | 1008.6 |
| 20260506032305 | 26 | 2 | 20.9 | 29.0 | 0.00 | 0.00 | 0.00 | 86 | 1008.7 |
| 20260506031743 | 26 | 2 | 20.9 | 29.0 | 0.00 | 0.00 | 0.00 | 86 | 1008.8 |
| 20260506031235 | 26 | 187 | 20.9 | 29.0 | 0.00 | 0.00 | 0.00 | 86 | 1008.7 |
| 20260506030726 | 26 | 2 | 20.9 | 29.0 | 0.00 | 0.00 | 0.00 | 86 | 1008.6 |
| 20260506030226 | 26 | 2 | 19.3 | 30.6 | 0.00 | 0.00 | 0.00 | 86 | 1008.5 |
| 20260506025039 | 26 | 165 | 20.9 | 32.2 | 0.00 | 0.00 | 0.00 | 86 | 1008.3 |
| 20260506023913 | 26 | 189 | 22.5 | 32.2 | 0.00 | 0.00 | 0.00 | 86 | 1008.1 |
| 20260506023421 | 26 | 169 | 22.5 | 32.2 | 0.00 | 0.00 | 0.00 | 86 | 1008.0 |
| 20260506022904 | 26 | 149 | 22.5 | 30.6 | 0.00 | 0.00 | 0.00 | 86 | 1007.9 |
| 20260506021731 | 26 | 2 | 20.9 | 30.6 | 0.00 | 0.00 | 0.00 | 86 | 1007.8 |
| 20260506021219 | 26 | 2 | 20.9 | 30.6 | 0.00 | 0.00 | 0.00 | 86 | 1007.6 |
| 20260506020701 | 26 | 181 | 19.3 | 30.6 | 0.00 | 0.00 | 0.00 | 86 | 1007.6 |
| 20260506020158 | 26 | 190 | 17.7 | 29.0 | 0.00 | 0.00 | 0.00 | 86 | 1007.6 |
| 20260506015646 | 26 | 164 | 17.7 | 29.0 | 0.00 | 0.00 | 0.00 | 86 | 1007.6 |
| 20260506015131 | 26 | 2 | 19.3 | 29.0 | 0.00 | 0.00 | 0.00 | 86 | 1007.5 |
| 20260506014616 | 26 | 2 | 19.3 | 29.0 | 0.00 | 0.00 | 0.00 | 86 | 1007.5 |
| 20260506014118 | 26 | 2 | 19.3 | 27.4 | 0.00 | 0.00 | 0.00 | 86 | 1007.3 |
| 20260506013559 | 26 | 2 | 17.7 | 24.1 | 0.00 | 0.00 | 0.00 | 85 | 1007.1 |
| 20260506013053 | 26 | 2 | 19.3 | 27.4 | 0.00 | 0.00 | 0.00 | 85 | 1007.1 |
| 20260506012546 | 26 | 2 | 19.3 | 27.4 | 0.00 | 0.00 | 0.00 | 85 | 1007.1 |
| 20260506012052 | 26 | 2 | 19.3 | 27.4 | 0.00 | 0.00 | 0.00 | 85 | 1007.0 |
| 20260506011537 | 26 | 184 | 19.3 | 27.4 | 0.00 | 0.00 | 0.00 | 85 | 1006.9 |
| 20260506011032 | 26 | 2 | 17.7 | 25.7 | 0.00 | 0.00 | 0.00 | 85 | 1006.9 |
| 20260506010518 | 26 | 2 | 17.7 | 25.7 | 0.00 | 0.00 | 0.00 | 85 | 1006.9 |
| 20260506005343 | 26 | 170 | 17.7 | 25.7 | 0.00 | 0.00 | 0.00 | 85 | 1006.8 |
| 20260506004834 | 26 | 182 | 17.7 | 25.7 | 0.00 | 0.00 | 0.00 | 85 | 1006.9 |
| 20260506004313 | 26 | 2 | 17.7 | 25.7 | 0.00 | 0.00 | 0.00 | 85 | 1006.9 |
| 20260506003804 | 26 | 2 | 16.1 | 25.7 | 0.00 | 0.00 | 0.00 | 84 | 1006.9 |
| 20260506003243 | 26 | 2 | 16.1 | 24.1 | 0.00 | 0.00 | 0.00 | 84 | 1006.9 |
| 20260506002736 | 26 | 188 | 16.1 | 24.1 | 0.00 | 0.00 | 0.00 | 84 | 1007.0 |
| 20260506002243 | 26 | 2 | 17.7 | 24.1 | 0.00 | 0.00 | 0.00 | 84 | 1007.0 |
| 20260506001729 | 26 | 188 | 17.7 | 24.1 | 0.00 | 0.00 | 0.00 | 84 | 1006.9 |
| 20260506000603 | 26 | 196 | 17.7 | 24.1 | 0.00 | 0.00 | 0.00 | 84 | 1007.0 |
| 20260506000059 | 26 | 170 | 17.7 | 27.4 | 0.00 | 0.00 | 0.00 | 84 | 1007.0 |
| 20260505235605 | 26 | 184 | 19.3 | 27.4 | 0.00 | 0.00 | 0.00 | 83 | 1007.0 |
| 20260505234426 | 26 | 179 | 19.3 | 27.4 | 0.00 | 0.00 | 0.00 | 83 | 1007.0 |
| 20260505233904 | 26 | 2 | 17.7 | 25.7 | 0.00 | 0.00 | 0.00 | 83 | 1006.9 |
| 20260505233357 | 26 | 2 | 19.3 | 25.7 | 0.00 | 0.00 | 0.00 | 83 | 1007.0 |
| 20260505232837 | 27 | 184 | 19.3 | 25.7 | 0.00 | 0.00 | 0.00 | 83 | 1007.0 |
| 20260505232324 | 27 | 2 | 20.9 | 25.7 | 0.00 | 0.00 | 0.00 | 83 | 1007.0 |
| 20260505230542 | 27 | 202 | 19.3 | 29.0 | 0.00 | 0.00 | 0.00 | 82 | 1007.1 |
| 20260505230039 | 27 | 2 | 19.3 | 24.1 | 0.00 | 0.00 | 0.00 | 82 | 1007.1 |
| 20260505225521 | 27 | 2 | 19.3 | 24.1 | 0.00 | 0.00 | 0.00 | 82 | 1007.1 |
| 20260505225022 | 27 | 2 | 19.3 | 24.1 | 0.00 | 0.00 | 0.00 | 82 | 1007.2 |
| 20260505224509 | 27 | 2 | 19.3 | 24.1 | 0.00 | 0.00 | 0.00 | 82 | 1007.3 |
| 20260505223956 | 27 | 176 | 17.7 | 24.1 | 0.00 | 0.00 | 0.00 | 82 | 1007.2 |
| 20260505223446 | 27 | 190 | 17.7 | 24.1 | 0.00 | 0.00 | 0.00 | 82 | 1007.2 |
| 20260505222951 | 27 | 2 | 17.7 | 22.5 | 0.00 | 0.00 | 0.00 | 82 | 1007.2 |
| 20260505222431 | 27 | 2 | 19.3 | 22.5 | 0.00 | 0.00 | 0.00 | 81 | 1007.2 |
| 20260505221930 | 27 | 197 | 17.7 | 22.5 | 0.00 | 0.00 | 0.00 | 81 | 1007.2 |
| 20260505221436 | 27 | 2 | 17.7 | 22.5 | 0.00 | 0.00 | 0.00 | 82 | 1007.2 |
| 20260505220924 | 27 | 173 | 17.7 | 24.1 | 0.00 | 0.00 | 0.00 | 82 | 1007.3 |
| 20260505220425 | 27 | 2 | 17.7 | 24.1 | 0.00 | 0.00 | 0.00 | 81 | 1007.3 |
| 20260505215914 | 27 | 2 | 17.7 | 24.1 | 0.00 | 0.00 | 0.00 | 81 | 1007.3 |
| 20260505215416 | 27 | 182 | 17.7 | 24.1 | 0.00 | 0.00 | 0.00 | 81 | 1007.4 |
| 20260505214918 | 27 | 2 | 17.7 | 24.1 | 0.00 | 0.00 | 0.00 | 81 | 1007.5 |
| 20260505214406 | 27 | 2 | 17.7 | 24.1 | 0.00 | 0.00 | 0.00 | 81 | 1007.5 |
| 20260505213846 | 27 | 2 | 17.7 | 25.7 | 0.00 | 0.00 | 0.00 | 81 | 1007.5 |
| 20260505213340 | 27 | 2 | 17.7 | 25.7 | 0.00 | 0.00 | 0.00 | 81 | 1007.6 |
| 20260505212206 | 27 | 169 | 17.7 | 25.7 | 0.00 | 0.00 | 0.00 | 80 | 1007.7 |
| 20260505211648 | 27 | 185 | 17.7 | 22.5 | 0.00 | 0.00 | 0.00 | 80 | 1007.9 |
| 20260505210507 | 27 | 163 | 16.1 | 24.1 | 0.00 | 0.00 | 0.00 | 80 | 1008.2 |
| 20260505210012 | 27 | 165 | 16.1 | 24.1 | 0.00 | 0.00 | 0.00 | 80 | 1008.3 |
| 20260505205454 | 27 | 193 | 16.1 | 24.1 | 0.00 | 0.00 | 0.00 | 80 | 1008.3 |